Weather History for KLPR - April, 2014

Change the Weather History Date:

Thursday, April 10, 2014

  Actual Average (KCLE) Record (KCLE)
Temperature  
Mean Temperature 59 °F 48 °F  
Max Temperature 73 °F 57 °F 83 °F (1978)
Min Temperature 46 °F 39 °F 20 °F (1997)
Degree Days  
Heating Degree Days 6 17  
Month to date heating degree days 192  
Since 1 July heating degree days 5235  
Cooling Degree Days 0 0  
Month to date cooling degree days 0  
Year to date cooling degree days 1  
Growing Degree Days 9 (Base 50)    
Moisture  
Dew Point 38 °F    
Average Humidity 46    
Maximum Humidity 86    
Minimum Humidity 28    
Precipitation  
Precipitation 0.14 in 0.12 in 2.10 in (1990)
Month to date precipitation 1.21  
Year to date precipitation 9.20  
Snow  
Snow 0.00 in 0.10 in - ()
Month to date snowfall 1.9  
Since 1 July snowfall 66.7  
Snow Depth -    
Sea Level Pressure  
Sea Level Pressure 29.88 in    
Wind  
Wind Speed 15 mph (SW)    
Max Wind Speed 31 mph    
Max Gust Speed 41 mph    
Visibility 10 miles    
Events Rain    
T = Trace of Precipitation, MM = Missing Value Source: NWS Daily Summary

Daily Weather History Graph

Daily Weather History Graph

Search for Another Location

Airport or City:

Trip Planner

Search our weather history database for the weather conditions in past years. The results will help you decide how hot, cold, wet, or windy it might be!

Date:

Astronomy

Apr. 10, 2014 Rise Set
Actual Time 6:57 AM EDT 8:03 PM EDT
Civil Twilight 6:28 AM EDT 8:32 PM EDT
Nautical Twilight 5:54 AM EDT 9:05 PM EDT
Astronomical Twilight 5:19 AM EDT 9:41 PM EDT
Moon 3:43 PM EDT (4/10) 4:22 AM EDT (4/10)
Length of Visible Light 14h 03m
Length of Day
13h 06m
Waxing Gibbous, 79% of the Moon is Illuminated
Apr 10
Waxing Gibbous
Apr 15
Full
Apr 22
Last Quarter
Apr 29
New
May 6
First Quarter

Hourly Weather History & Observations

Time (EDT) Temp. Windchill Dew Point Humidity Pressure Visibility Wind Dir Wind Speed Gust Speed Precip Events Conditions
12:53 AM 46.0 °F 41.9 °F 32.0 °F 58% 29.99 in 10.0 mi South 8.1 mph - N/A   Clear
1:53 AM 46.9 °F - 32.0 °F 56% 30.00 in 10.0 mi SSW 9.2 mph - N/A   Clear
3:53 AM 46.9 °F - 32.0 °F 56% 29.99 in 10.0 mi SSW 10.4 mph - N/A   Clear
4:53 AM 48.0 °F - 32.0 °F 54% 29.97 in 10.0 mi SSW 11.5 mph - N/A   Clear
5:53 AM 46.9 °F - 32.0 °F 56% 29.97 in 10.0 mi SSW 11.5 mph - N/A   Clear
6:53 AM 46.0 °F 41.0 °F 33.1 °F 61% 29.97 in 10.0 mi South 10.4 mph - N/A   Overcast
7:53 AM 48.0 °F - 34.0 °F 58% 29.97 in 10.0 mi South 12.7 mph - N/A   Clear
10:19 AM 61.0 °F - 36.0 °F 39% 29.92 in 10.0 mi SSW 18.4 mph 28.8 mph N/A   Partly Cloudy
10:53 AM 64.0 °F - 36.0 °F 35% 29.91 in 10.0 mi SSW 24.2 mph 35.7 mph 0.00 in   Clear
11:53 AM 66.0 °F - 35.1 °F 32% 29.88 in 10.0 mi SW 23.0 mph 36.8 mph 0.00 in Rain Light Rain
12:53 PM 66.9 °F - 35.1 °F 31% 29.86 in 10.0 mi SW 21.9 mph 35.7 mph 0.00 in Rain Light Rain
1:53 PM 70.0 °F - 36.0 °F 29% 29.80 in 10.0 mi SSW 23.0 mph 40.3 mph 0.00 in Rain Light Rain
2:53 PM 71.1 °F - 36.0 °F 28% 29.78 in 10.0 mi SSW 25.3 mph 40.3 mph 0.00 in Rain Light Rain
3:53 PM 72.0 °F - 37.0 °F 28% 29.77 in 10.0 mi SW 31.1 mph 39.1 mph 0.00 in   Clear
4:53 PM 71.1 °F - 37.9 °F 30% 29.75 in 10.0 mi SW 27.6 mph 41.4 mph N/A   Clear
5:53 PM 72.0 °F - 39.9 °F 31% 29.76 in 10.0 mi SW 27.6 mph 39.1 mph 0.00 in Rain Light Rain
6:53 PM 71.1 °F - 41.0 °F 34% 29.78 in 10.0 mi SW 24.2 mph 32.2 mph 0.00 in   Clear
7:53 PM 69.1 °F - 42.1 °F 38% 29.79 in 10.0 mi SW 17.3 mph - N/A   Mostly Cloudy
8:53 PM 68.0 °F - 44.1 °F 42% 29.83 in 10.0 mi West 11.5 mph 21.9 mph N/A   Overcast
9:53 PM 62.1 °F - 46.9 °F 58% 29.88 in 10.0 mi NNE 8.1 mph - 0.00 in Rain Light Rain
10:53 PM 54.0 °F - 48.0 °F 80% 29.93 in 4.0 mi NNW 11.5 mph - 0.05 in Rain Rain
11:53 PM 54.0 °F - 50.0 °F 86% 29.95 in 4.0 mi WNW 8.1 mph - 0.09 in Rain Rain